Time,TemperatureF,DewpointF,PressureIn,WindDirection,WindDirectionDegrees,WindSpeedMPH,WindSpeedGustMPH,Humidity,HourlyPrecipIn,Conditions,Clouds,dailyrainin,SoftwareType,DateUTC
2013-01-23 00:02:00,58.0,23.0,-100.00,North,4,1.0,3.0,26,-99.99,,,-99.99,,2013-01-23 08:02:00,
2013-01-23 00:12:00,58.0,23.0,-100.00,NNE,25,2.0,4.0,26,-99.99,,,-99.99,,2013-01-23 08:12:00,
2013-01-23 00:22:00,58.0,23.0,-100.00,NNW,345,1.0,4.0,26,-99.99,,,-99.99,,2013-01-23 08:22:00,
2013-01-23 00:32:00,56.0,23.0,-100.00,NNE,24,3.0,5.0,28,-99.99,,,-99.99,,2013-01-23 08:32:00,
2013-01-23 00:42:00,56.0,24.0,-100.00,NNE,18,2.0,5.0,29,-99.99,,,-99.99,,2013-01-23 08:42:00,
2013-01-23 00:52:00,52.0,26.0,-100.00,NNE,17,2.0,4.0,36,-99.99,,,-99.99,,2013-01-23 08:52:00,
2013-01-23 01:02:00,52.0,26.0,-100.00,NNE,17,2.0,4.0,36,-99.99,,,-99.99,,2013-01-23 09:02:00,
2013-01-23 01:12:00,55.0,26.0,-100.00,NNW,330,1.0,2.0,32,-99.99,,,-99.99,,2013-01-23 09:12:00,
2013-01-23 01:22:00,56.0,25.0,-100.00,North,356,2.0,5.0,30,-99.99,,,-99.99,,2013-01-23 09:22:00,
2013-01-23 01:32:00,56.0,26.0,-100.00,NNE,29,3.0,4.0,31,-99.99,,,-99.99,,2013-01-23 09:32:00,
2013-01-23 01:43:00,57.0,25.0,-100.00,NE,34,2.0,3.0,29,-99.99,,,-99.99,,2013-01-23 09:43:00,
2013-01-23 01:52:00,57.0,25.0,-100.00,NE,34,2.0,3.0,29,-99.99,,,-99.99,,2013-01-23 09:52:00,
2013-01-23 02:02:00,58.0,25.0,-100.00,NNE,18,2.0,3.0,28,-99.99,,,-99.99,,2013-01-23 10:02:00,
2013-01-23 02:12:00,59.0,26.0,-100.00,NE,37,1.0,2.0,28,-99.99,,,-99.99,,2013-01-23 10:12:00,
2013-01-23 02:22:00,59.0,26.0,-100.00,NW,318,2.0,4.0,28,-99.99,,,-99.99,,2013-01-23 10:22:00,
2013-01-23 02:32:00,60.0,26.0,-100.00,ENE,74,1.0,4.0,27,-99.99,,,-99.99,,2013-01-23 10:32:00,
2013-01-23 02:42:00,60.0,27.0,-100.00,NE,49,1.0,3.0,28,-99.99,,,-99.99,,2013-01-23 10:42:00,
2013-01-23 02:52:00,59.0,28.0,-100.00,NE,50,3.0,5.0,30,-99.99,,,-99.99,,2013-01-23 10:52:00,
2013-01-23 03:02:00,59.0,28.0,-100.00,NE,50,3.0,5.0,30,-99.99,,,-99.99,,2013-01-23 11:02:00,
2013-01-23 03:12:00,60.0,28.0,-100.00,NE,36,4.0,7.0,29,-99.99,,,-99.99,,2013-01-23 11:12:00,
2013-01-23 03:22:00,63.0,27.0,-100.00,NNW,343,3.0,5.0,25,-99.99,,,-99.99,,2013-01-23 11:22:00,
2013-01-23 03:32:00,62.0,26.0,-100.00,ENE,60,2.0,5.0,25,-99.99,,,-99.99,,2013-01-23 11:32:00,
2013-01-23 03:42:00,63.0,27.0,-100.00,NE,49,2.0,5.0,25,-99.99,,,-99.99,,2013-01-23 11:42:00,
2013-01-23 03:52:00,63.0,26.0,-100.00,NE,54,2.0,5.0,24,-99.99,,,-99.99,,2013-01-23 11:52:00,
2013-01-23 04:02:00,64.0,25.0,-100.00,East,80,3.0,5.0,23,-99.99,,,-99.99,,2013-01-23 12:02:00,
2013-01-23 04:12:00,65.0,24.0,-100.00,NE,54,2.0,4.0,21,-99.99,,,-99.99,,2013-01-23 12:12:00,
2013-01-23 04:22:00,65.0,24.0,-100.00,WSW,238,2.0,4.0,21,-99.99,,,-99.99,,2013-01-23 12:22:00,
2013-01-23 04:32:00,64.0,23.0,-100.00,NNE,13,1.0,3.0,21,-99.99,,,-99.99,,2013-01-23 12:32:00,
2013-01-23 04:42:00,62.0,24.0,-100.00,WNW,285,1.0,3.0,23,-99.99,,,-99.99,,2013-01-23 12:42:00,
2013-01-23 04:52:00,64.0,23.0,-100.00,WNW,300,2.0,5.0,21,-99.99,,,-99.99,,2013-01-23 12:52:00,
2013-01-23 05:03:00,64.0,23.0,-100.00,WNW,292,2.0,5.0,21,-99.99,,,-99.99,,2013-01-23 13:03:00,
2013-01-23 05:12:00,65.0,24.0,-100.00,WSW,257,1.0,3.0,21,-99.99,,,-99.99,,2013-01-23 13:12:00,
2013-01-23 05:22:00,64.0,23.0,-100.00,SE,135,1.0,7.0,21,-99.99,,,-99.99,,2013-01-23 13:22:00,
2013-01-23 05:33:00,66.0,24.0,-100.00,SE,136,5.0,12.0,20,-99.99,,,-99.99,,2013-01-23 13:33:00,
2013-01-23 05:42:00,66.0,24.0,-100.00,SE,136,5.0,12.0,20,-99.99,,,-99.99,,2013-01-23 13:42:00,
2013-01-23 05:52:00,67.0,23.0,-100.00,SE,129,5.0,9.0,19,-99.99,,,-99.99,,2013-01-23 13:52:00,
2013-01-23 06:02:00,67.0,23.0,-100.00,SE,136,5.0,10.0,19,-99.99,,,-99.99,,2013-01-23 14:02:00,
2013-01-23 06:12:00,67.0,23.0,-100.00,SE,142,4.0,8.0,19,-99.99,,,-99.99,,2013-01-23 14:12:00,
2013-01-23 06:23:00,67.0,23.0,-100.00,SSE,155,2.0,6.0,19,-99.99,,,-99.99,,2013-01-23 14:23:00,
2013-01-23 06:33:00,66.0,24.0,-100.00,SE,138,1.0,4.0,20,-99.99,,,-99.99,,2013-01-23 14:33:00,
2013-01-23 06:42:00,67.0,23.0,-100.00,SE,135,3.0,8.0,19,-99.99,,,-99.99,,2013-01-23 14:42:00,
2013-01-23 06:53:00,67.0,23.0,-100.00,SE,134,2.0,6.0,19,-99.99,,,-99.99,,2013-01-23 14:53:00,
2013-01-23 07:02:00,67.0,25.0,-100.00,SE,125,1.0,4.0,20,-99.99,,,-99.99,,2013-01-23 15:02:00,
2013-01-23 07:12:00,67.0,25.0,-100.00,SE,126,3.0,6.0,20,-99.99,,,-99.99,,2013-01-23 15:12:00,
2013-01-23 07:22:00,66.0,24.0,-100.00,ESE,113,1.0,4.0,20,-99.99,,,-99.99,,2013-01-23 15:22:00,
2013-01-23 07:33:00,66.0,25.0,-100.00,NNE,18,1.0,5.0,21,-99.99,,,-99.99,,2013-01-23 15:33:00,
2013-01-23 07:43:00,66.0,25.0,-100.00,West,271,1.0,3.0,21,-99.99,,,-99.99,,2013-01-23 15:43:00,
2013-01-23 07:52:00,67.0,25.0,-100.00,SE,132,3.0,6.0,20,-99.99,,,-99.99,,2013-01-23 15:52:00,
2013-01-23 08:02:00,67.0,25.0,-100.00,ESE,104,2.0,7.0,20,-99.99,,,-99.99,,2013-01-23 16:02:00,
2013-01-23 08:12:00,66.0,25.0,-100.00,ESE,107,3.0,7.0,21,-99.99,,,-99.99,,2013-01-23 16:12:00,
2013-01-23 08:22:00,67.0,26.0,-100.00,SE,125,4.0,8.0,21,-99.99,,,-99.99,,2013-01-23 16:22:00,
2013-01-23 08:32:00,68.0,25.0,-100.00,SE,139,4.0,9.0,20,-99.99,,,-99.99,,2013-01-23 16:32:00,
2013-01-23 08:42:00,68.0,25.0,-100.00,SE,139,4.0,9.0,20,-99.99,,,-99.99,,2013-01-23 16:42:00,
2013-01-23 08:52:00,68.0,25.0,-100.00,SE,145,4.0,7.0,20,-99.99,,,-99.99,,2013-01-23 16:52:00,
2013-01-23 09:02:00,69.0,26.0,-100.00,SE,131,5.0,9.0,20,-99.99,,,-99.99,,2013-01-23 17:02:00,
2013-01-23 09:12:00,70.0,27.0,-100.00,SE,128,5.0,10.0,20,-99.99,,,-99.99,,2013-01-23 17:12:00,
2013-01-23 09:22:00,71.0,27.0,-100.00,SE,124,5.0,9.0,19,-99.99,,,-99.99,,2013-01-23 17:22:00,
2013-01-23 09:33:00,71.0,28.0,-100.00,ESE,118,6.0,11.0,20,-99.99,,,-99.99,,2013-01-23 17:33:00,
2013-01-23 09:42:00,71.0,28.0,-100.00,SE,124,5.0,10.0,20,-99.99,,,-99.99,,2013-01-23 17:42:00,
2013-01-23 09:52:00,72.0,27.0,-100.00,ESE,121,5.0,8.0,19,-99.99,,,-99.99,,2013-01-23 17:52:00,
2013-01-23 10:03:00,74.0,28.0,-100.00,SE,139,8.0,13.0,18,-99.99,,,-99.99,,2013-01-23 18:03:00,
2013-01-23 10:12:00,74.0,28.0,-100.00,SSE,156,7.0,12.0,18,-99.99,,,-99.99,,2013-01-23 18:12:00,
2013-01-23 10:22:00,74.0,28.0,-100.00,SSE,149,7.0,13.0,18,-99.99,,,-99.99,,2013-01-23 18:22:00,
2013-01-23 10:32:00,74.0,28.0,-100.00,SSE,149,8.0,17.0,18,-99.99,,,-99.99,,2013-01-23 18:32:00,
2013-01-23 10:43:00,74.0,28.0,-100.00,SE,144,7.0,12.0,18,-99.99,,,-99.99,,2013-01-23 18:43:00,
2013-01-23 10:52:00,74.0,28.0,-100.00,SSE,158,5.0,10.0,18,-99.99,,,-99.99,,2013-01-23 18:52:00,
2013-01-23 11:02:00,74.0,26.0,-100.00,SSE,165,5.0,8.0,17,-99.99,,,-99.99,,2013-01-23 19:02:00,
2013-01-23 11:12:00,74.0,26.0,-100.00,SSE,162,7.0,13.0,17,-99.99,,,-99.99,,2013-01-23 19:12:00,
2013-01-23 11:22:00,74.0,26.0,-100.00,SSE,155,7.0,13.0,17,-99.99,,,-99.99,,2013-01-23 19:22:00,
2013-01-23 11:32:00,75.0,27.0,-100.00,SE,137,8.0,15.0,17,-99.99,,,-99.99,,2013-01-23 19:32:00,
2013-01-23 11:42:00,75.0,26.0,-100.00,South,169,8.0,14.0,16,-99.99,,,-99.99,,2013-01-23 19:42:00,
2013-01-23 11:52:00,75.0,26.0,-100.00,South,176,10.0,16.0,16,-99.99,,,-99.99,,2013-01-23 19:52:00,
2013-01-23 12:02:00,75.0,26.0,-100.00,SSE,155,7.0,14.0,16,-99.99,,,-99.99,,2013-01-23 20:02:00,
2013-01-23 12:12:00,75.0,27.0,-100.00,South,186,9.0,15.0,17,-99.99,,,-99.99,,2013-01-23 20:12:00,
2013-01-23 12:22:00,75.0,27.0,-100.00,South,189,8.0,14.0,17,-99.99,,,-99.99,,2013-01-23 20:22:00,
2013-01-23 12:32:00,74.0,26.0,-100.00,South,178,10.0,16.0,17,-99.99,,,-99.99,,2013-01-23 20:32:00,
2013-01-23 12:42:00,74.0,26.0,-100.00,South,178,10.0,16.0,17,-99.99,,,-99.99,,2013-01-23 20:42:00,
2013-01-23 12:53:00,74.0,28.0,-100.00,SSW,192,8.0,14.0,18,-99.99,,,-99.99,,2013-01-23 20:53:00,
2013-01-23 13:02:00,75.0,29.0,-100.00,SSW,192,9.0,14.0,18,-99.99,,,-99.99,,2013-01-23 21:02:00,
2013-01-23 13:12:00,74.0,29.0,-100.00,SSW,209,10.0,15.0,19,-99.99,,,-99.99,,2013-01-23 21:12:00,
2013-01-23 13:22:00,72.0,31.0,-100.00,WSW,246,10.0,15.0,22,-99.99,,,-99.99,,2013-01-23 21:22:00,
2013-01-23 13:33:00,70.0,32.0,-100.00,WSW,252,9.0,15.0,24,-99.99,,,-99.99,,2013-01-23 21:33:00,
2013-01-23 13:42:00,70.0,32.0,-100.00,SW,234,9.0,15.0,24,-99.99,,,-99.99,,2013-01-23 21:42:00,
2013-01-23 13:52:00,69.0,32.0,-100.00,WSW,241,8.0,15.0,25,-99.99,,,-99.99,,2013-01-23 21:52:00,
2013-01-23 14:02:00,69.0,32.0,-100.00,SSW,211,6.0,9.0,25,-99.99,,,-99.99,,2013-01-23 22:02:00,
2013-01-23 14:12:00,69.0,32.0,-100.00,SW,221,4.0,10.0,25,-99.99,,,-99.99,,2013-01-23 22:12:00,
2013-01-23 14:22:00,69.0,32.0,-100.00,SW,232,4.0,7.0,25,-99.99,,,-99.99,,2013-01-23 22:22:00,
2013-01-23 14:33:00,70.0,33.0,-100.00,SSW,213,3.0,5.0,25,-99.99,,,-99.99,,2013-01-23 22:33:00,
2013-01-23 14:42:00,70.0,32.0,-100.00,SW,227,5.0,8.0,24,-99.99,,,-99.99,,2013-01-23 22:42:00,
2013-01-23 14:52:00,69.0,32.0,-100.00,SW,226,4.0,6.0,25,-99.99,,,-99.99,,2013-01-23 22:52:00,
2013-01-23 15:02:00,69.0,32.0,-100.00,West,262,2.0,5.0,25,-99.99,,,-99.99,,2013-01-23 23:02:00,
2013-01-23 15:12:00,69.0,32.0,-100.00,North,358,1.0,4.0,25,-99.99,,,-99.99,,2013-01-23 23:12:00,
2013-01-23 15:22:00,69.0,34.0,-100.00,NW,316,1.0,3.0,27,-99.99,,,-99.99,,2013-01-23 23:22:00,
2013-01-23 15:33:00,69.0,33.0,-100.00,SW,217,1.0,3.0,26,-99.99,,,-99.99,,2013-01-23 23:33:00,
2013-01-23 15:42:00,69.0,32.0,-100.00,South,173,2.0,5.0,25,-99.99,,,-99.99,,2013-01-23 23:42:00,
2013-01-23 15:52:00,69.0,33.0,-100.00,SW,217,6.0,9.0,26,-99.99,,,-99.99,,2013-01-23 23:52:00,
2013-01-23 16:02:00,68.0,33.0,-100.00,SW,228,6.0,10.0,27,-99.99,,,-99.99,,2013-01-24 00:02:00,
2013-01-23 16:12:00,67.0,31.0,-100.00,SW,233,7.0,10.0,26,-99.99,,,-99.99,,2013-01-24 00:12:00,
2013-01-23 16:22:00,67.0,31.0,-100.00,SW,234,5.0,7.0,26,-99.99,,,-99.99,,2013-01-24 00:22:00,
2013-01-23 16:32:00,67.0,32.0,-100.00,SW,229,4.0,5.0,27,-99.99,,,-99.99,,2013-01-24 00:32:00,
2013-01-23 16:42:00,66.0,33.0,-100.00,NNW,343,3.0,5.0,29,-99.99,,,-99.99,,2013-01-24 00:42:00,
2013-01-23 16:52:00,65.0,34.0,-100.00,ENE,72,3.0,4.0,32,-99.99,,,-99.99,,2013-01-24 00:52:00,
2013-01-23 17:02:00,65.0,30.0,-100.00,SSW,209,2.0,6.0,27,-99.99,,,-99.99,,2013-01-24 01:02:00,
2013-01-23 17:12:00,64.0,27.0,-100.00,SW,225,5.0,8.0,25,-99.99,,,-99.99,,2013-01-24 01:12:00,
2013-01-23 17:22:00,64.0,27.0,-100.00,SW,222,3.0,5.0,25,-99.99,,,-99.99,,2013-01-24 01:22:00,
2013-01-23 17:32:00,64.0,29.0,-100.00,West,265,2.0,3.0,27,-99.99,,,-99.99,,2013-01-24 01:32:00,
2013-01-23 17:42:00,63.0,33.0,-100.00,North,10,2.0,4.0,32,-99.99,,,-99.99,,2013-01-24 01:42:00,
2013-01-23 17:52:00,62.0,32.0,-100.00,North,4,3.0,4.0,32,-99.99,,,-99.99,,2013-01-24 01:52:00,
2013-01-23 18:02:00,62.0,30.0,-100.00,North,2,3.0,5.0,30,-99.99,,,-99.99,,2013-01-24 02:02:00,
2013-01-23 18:12:00,62.0,30.0,-100.00,North,9,2.0,4.0,30,-99.99,,,-99.99,,2013-01-24 02:12:00,
2013-01-23 18:22:00,62.0,30.0,-100.00,North,0,2.0,3.0,30,-99.99,,,-99.99,,2013-01-24 02:22:00,
2013-01-23 18:32:00,61.0,30.0,-100.00,North,359,1.0,2.0,31,-99.99,,,-99.99,,2013-01-24 02:32:00,
2013-01-23 18:42:00,61.0,30.0,-100.00,North,359,1.0,2.0,31,-99.99,,,-99.99,,2013-01-24 02:42:00,
2013-01-23 18:52:00,61.0,30.0,-100.00,North,359,1.0,2.0,31,-99.99,,,-99.99,,2013-01-24 02:52:00,
2013-01-23 19:02:00,60.0,34.0,-100.00,NNW,345,1.0,2.0,37,-99.99,,,-99.99,,2013-01-24 03:02:00,
2013-01-23 19:12:00,60.0,32.0,-100.00,North,355,2.0,4.0,35,-99.99,,,-99.99,,2013-01-24 03:12:00,
2013-01-23 19:22:00,59.0,33.0,-100.00,ENE,62,3.0,5.0,38,-99.99,,,-99.99,,2013-01-24 03:22:00,
2013-01-23 19:32:00,58.0,36.0,-100.00,NE,55,2.0,4.0,44,-99.99,,,-99.99,,2013-01-24 03:32:00,
2013-01-23 19:42:00,58.0,34.0,-100.00,NE,41,4.0,6.0,41,-99.99,,,-99.99,,2013-01-24 03:42:00,
2013-01-23 19:52:00,59.0,31.0,-100.00,NNE,14,4.0,6.0,34,-99.99,,,-99.99,,2013-01-24 03:52:00,
2013-01-23 20:02:00,60.0,32.0,-100.00,East,83,3.0,5.0,34,-99.99,,,-99.99,,2013-01-24 04:02:00,
2013-01-23 20:12:00,59.0,33.0,-100.00,East,88,3.0,4.0,37,-99.99,,,-99.99,,2013-01-24 04:12:00,
2013-01-23 20:22:00,59.0,31.0,-100.00,West,263,3.0,4.0,35,-99.99,,,-99.99,,2013-01-24 04:22:00,
2013-01-23 20:32:00,59.0,30.0,-100.00,NW,319,3.0,4.0,33,-99.99,,,-99.99,,2013-01-24 04:32:00,
2013-01-23 20:42:00,58.0,33.0,-100.00,NE,34,3.0,6.0,39,-99.99,,,-99.99,,2013-01-24 04:42:00,
2013-01-23 20:52:00,56.0,36.0,-100.00,NE,52,4.0,6.0,46,-99.99,,,-99.99,,2013-01-24 04:52:00,
2013-01-23 21:03:00,57.0,32.0,-100.00,North,355,2.0,3.0,39,-99.99,,,-99.99,,2013-01-24 05:03:00,
2013-01-23 21:12:00,58.0,32.0,-100.00,NNW,331,1.0,3.0,37,-99.99,,,-99.99,,2013-01-24 05:12:00,
2013-01-23 21:22:00,58.0,33.0,-100.00,ENE,73,2.0,4.0,39,-99.99,,,-99.99,,2013-01-24 05:22:00,
2013-01-23 21:32:00,57.0,34.0,-100.00,North,351,2.0,4.0,41,-99.99,,,-99.99,,2013-01-24 05:32:00,
2013-01-23 21:42:00,58.0,33.0,-100.00,NE,43,2.0,4.0,38,-99.99,,,-99.99,,2013-01-24 05:42:00,
2013-01-23 21:52:00,58.0,34.0,-100.00,ESE,117,1.0,2.0,40,-99.99,,,-99.99,,2013-01-24 05:52:00,
2013-01-23 22:02:00,57.0,34.0,-100.00,ENE,71,1.0,2.0,42,-99.99,,,-99.99,,2013-01-24 06:02:00,
2013-01-23 22:12:00,57.0,35.0,-100.00,WNW,284,1.0,2.0,43,-99.99,,,-99.99,,2013-01-24 06:12:00,
2013-01-23 22:22:00,58.0,34.0,-100.00,WNW,294,1.0,3.0,41,-99.99,,,-99.99,,2013-01-24 06:22:00,
2013-01-23 22:32:00,58.0,33.0,-100.00,NNW,347,1.0,5.0,39,-99.99,,,-99.99,,2013-01-24 06:32:00,
2013-01-23 22:42:00,59.0,32.0,-100.00,SW,221,1.0,3.0,36,-99.99,,,-99.99,,2013-01-24 06:42:00,
2013-01-23 22:52:00,59.0,30.0,-100.00,SSW,209,1.0,4.0,33,-99.99,,,-99.99,,2013-01-24 06:52:00,
2013-01-23 23:02:00,62.0,28.0,-100.00,South,176,4.0,12.0,27,-99.99,,,-99.99,,2013-01-24 07:02:00,
2013-01-23 23:12:00,64.0,25.0,-100.00,SSW,195,6.0,12.0,23,-99.99,,,-99.99,,2013-01-24 07:12:00,
2013-01-23 23:22:00,64.0,25.0,-100.00,SSW,195,6.0,11.0,23,-99.99,,,-99.99,,2013-01-24 07:22:00,
2013-01-23 23:32:00,63.0,26.0,-100.00,SSW,200,7.0,10.0,24,-99.99,,,-99.99,,2013-01-24 07:32:00,
2013-01-23 23:42:00,61.0,28.0,-100.00,SW,220,6.0,9.0,28,-99.99,,,-99.99,,2013-01-24 07:42:00,
2013-01-23 23:52:00,59.0,28.0,-100.00,SSW,203,5.0,7.0,31,-99.99,,,-99.99,,2013-01-24 07:52:00,